Regional Weather Roundup
Issued by NWS Newport/Morehead, NC

Current Version | Previous Version | Graphics & Text | Print | Product List | Glossary Off
Versions: 1 2 3 4 5 6 7 8 9 10 11 12 13 14 15 16 17 18 19 20 21 22 23 24 25 26 27 28 29 30 31 32 33 34 35 36 37 38 39 40 41 42 43 44 45 46 47 48 49 50

000
ASUS42 KMHX 270310
RWRMHX
WEATHER ROUNDUP FOR EASTERN NORTH CAROLINA
NATIONAL WEATHER SERVICE NEWPORT/MOREHEAD CITY NC
1000 PM EST WED NOV 26 2014

NOTE: "FAIR" INDICATES FEW OR NO CLOUDS BELOW 12,000 FEET
WITH NO SIGNIFICANT WEATHER AND/OR OBSTRUCTIONS TO VISIBILITY

NCZ015>017-031-032-045>047-102-103-270400-
NORTH COAST

CITY           SKY/WX    TMP DP  RH WIND       PRES   REMARKS
EDENTON        CLOUDY    41  38  89 NW8       30.07R
ELIZABETH CITY CLOUDY    43  38  82 W10       30.05R
KITTY HAWK     CLOUDY    42  38  88 NW9G16    30.02R
MANTEO         CLOUDY    42  38  86 NW9G16    30.03R

$$

NCZ045>047-081-094-103-104-270400-
CENTRAL COAST

CITY           SKY/WX    TMP DP  RH WIND       PRES   REMARKS
FRISCO         CLOUDY    43  40  89 NW14G22   30.04R
SWANQUARTER      N/A     43 N/A N/A NW7G16    30.03S

$$

NCZ095-097-098-100-101-270400-
SOUTHERN COAST

CITY           SKY/WX    TMP DP  RH WIND       PRES   REMARKS
BEAUFORT       CLOUDY    45  40  82 NW12      30.08R
CEDAR ISLAND     N/A     45 N/A N/A W14G23    30.09S
JACKSONVILLE   MOCLDY    44  40  85 NW3       30.09R
PINEY ISLAND   CLOUDY    46  38  73 W15G23    30.07R
WILMINGTON     CLEAR     44  42  93 CALM      30.09S


$$

NCZ011>013-027>030-043-044-078>080-089-090>093-098-270400-
COASTAL PLAIN

CITY           SKY/WX    TMP DP  RH WIND       PRES   REMARKS
AHOSKIE        CLOUDY    39  36  90 CALM      30.08R
CLINTON        CLEAR     38  38 100 CALM      30.08F
ELIZABETHTOWN  CLEAR     39  39 100 CALM      30.07S
GOLDSBORO      PTCLDY    42  41  98 CALM      30.06F
GREENVILLE     CLOUDY    41  37  87 NW5       30.10S
HAVELOCK       CLOUDY    45  39  79 NW12      30.09S
KENANSVILLE    CLEAR     38  38  99 CALM      30.08F
KINSTON        CLEAR     39  38  94 CALM      30.09S
NEW BERN       CLOUDY    45  39  79 NW9       30.09S
RICHLANDS      CLEAR     39  36  87 CALM      30.09R
ROCKY MOUNT    MOCLDY    38  36  92 CALM      30.08S
WASHINGTON     CLOUDY    41  37  85 NW7       30.08S
WHITEVILLE     CLEAR     42  41  97 CALM      30.09R

$$

AMZ130-135-150-152-154-156-158-170-250-252-270-ANZ085-086-088-633-658-670-270400-
MARINE OBSERVATIONS

STATION/POSITION TIME  TEMP    WIND        PRES    WAVE   SWELL
                       AIR SEA DIR/SP/G            HT/PER HT/PER
                 (UTC) (F)     (DEG/KT/KT) (MB)    (FT/S) (FT/S)
CHESAPEAKE LIGHT 0200   44     320/ 24/ 27 1015.0
64 E VA BEACH    0300   47 63  310/ 23/ 29 1013.7   11/ 9
DUCK             0300   42 55  290/ 13/ 15 1015.8
2 E DUCK         0300      57                N/A     6/ 9   2/11
10 NE DUCK       0200      59                N/A     8/ 9   2/11
OREGON INLET     0300   43 57  280/ 13/ 17 1016.7
13E OREGON INLT  0300      63                N/A     9/ 9   2/11
HATTERAS CG      0300   46 62  310/ 18/ 21 1017.6
DIAMOND BUOY     0300   50     290/ 17/ 23 1016.4   10/ 9   7/ 9
17 S OCRACOKE    NOT AVBL
CAPE LOOKOUT     0200   47     300/ 20/ 23 1017.7
BEAUFORT LAB     0300   45 58  310/  8/ 14 1017.6
30 SE NEW RIVER  0300   50 67  310/ 17/ 19 1018.8    5/ 5   2/10
5 SE WRIGHTSVLE  0200   47 59  330/ 12/ 16 1017.9
225 S CAPE HAT   NOT AVBL
41 SE CHARLESTON 0300   60 74  270/ 14/ 19 1019.0    4/10   3/10

$$



USA.gov is the U.S. government's official web portal to all federal, state and local government web resources and services.